Time,TemperatureF,DewpointF,PressureIn,WindDirection,WindDirectionDegrees,WindSpeedMPH,WindSpeedGustMPH,Humidity,HourlyPrecipIn,Conditions,Clouds,dailyrainin,SoftwareType,DateUTC
2013-07-29 00:03:00,78.4,67.4,29.81,ENE,77,4.0,8.0,69,0.00,,---,0.00,VWS V14.01,2013-07-29 05:03:00,
2013-07-29 00:08:00,78.3,67.3,29.81,East,101,6.0,9.0,69,0.00,,---,0.00,VWS V14.01,2013-07-29 05:08:00,
2013-07-29 00:13:00,78.2,67.2,29.81,ESE,110,5.0,9.0,69,0.00,,---,0.00,VWS V14.01,2013-07-29 05:13:00,
2013-07-29 00:18:00,78.2,67.2,29.81,ESE,113,9.0,10.0,69,0.00,,---,0.00,VWS V14.01,2013-07-29 05:18:00,
2013-07-29 00:24:00,78.3,67.3,29.81,East,82,9.0,10.0,69,0.00,,---,0.00,VWS V14.01,2013-07-29 05:24:00,
2013-07-29 00:29:00,78.2,67.2,29.81,ENE,65,5.0,10.0,69,0.00,,---,0.00,VWS V14.01,2013-07-29 05:29:00,
2013-07-29 00:34:00,78.3,66.9,29.81,ESE,110,8.0,11.0,68,0.00,,---,0.00,VWS V14.01,2013-07-29 05:34:00,
2013-07-29 00:39:00,78.4,67.0,29.81,SE,135,6.0,11.0,68,0.00,,---,0.00,VWS V14.01,2013-07-29 05:39:00,
2013-07-29 00:44:00,78.5,67.1,29.81,East,80,6.0,11.0,68,0.00,,---,0.00,VWS V14.01,2013-07-29 05:44:00,
2013-07-29 00:49:00,78.6,67.2,29.81,East,90,4.0,12.0,68,0.00,,---,0.00,VWS V14.01,2013-07-29 05:49:00,
2013-07-29 00:54:00,78.4,67.0,29.81,East,94,5.0,12.0,68,0.00,,---,0.00,VWS V14.01,2013-07-29 05:54:00,
2013-07-29 00:59:00,78.1,67.1,29.81,SE,134,5.0,12.0,69,0.00,,---,0.00,VWS V14.01,2013-07-29 05:59:00,
2013-07-29 01:04:00,77.9,67.3,29.81,ESE,107,7.0,9.0,70,0.00,,---,0.00,VWS V14.01,2013-07-29 06:04:00,
2013-07-29 01:09:00,77.7,67.1,29.81,ENE,74,3.0,10.0,70,0.00,,---,0.00,VWS V14.01,2013-07-29 06:09:00,
2013-07-29 01:14:00,77.5,66.9,29.81,ESE,111,6.0,10.0,70,0.00,,---,0.00,VWS V14.01,2013-07-29 06:14:00,
2013-07-29 01:19:00,77.3,67.2,29.81,ENE,73,5.0,10.0,71,0.00,,---,0.00,VWS V14.01,2013-07-29 06:19:00,
2013-07-29 01:24:00,77.2,67.1,29.81,East,83,5.0,10.0,71,0.00,,---,0.00,VWS V14.01,2013-07-29 06:24:00,
2013-07-29 01:29:00,77.1,67.0,29.81,East,84,5.0,10.0,71,0.00,,---,0.00,VWS V14.01,2013-07-29 06:29:00,
2013-07-29 01:34:00,77.1,67.0,29.81,ESE,110,5.0,7.0,71,0.00,,---,0.00,VWS V14.01,2013-07-29 06:34:00,
2013-07-29 01:39:00,77.1,67.0,29.81,East,98,4.0,7.0,71,0.00,,---,0.00,VWS V14.01,2013-07-29 06:39:00,
2013-07-29 01:44:00,77.0,66.9,29.81,ESE,115,7.0,7.0,71,0.00,,---,0.00,VWS V14.01,2013-07-29 06:44:00,
2013-07-29 01:49:00,77.0,66.9,29.81,ESE,115,6.0,7.0,71,0.00,,---,0.00,VWS V14.01,2013-07-29 06:49:00,
2013-07-29 01:54:00,77.0,67.3,29.80,ESE,105,6.0,7.0,72,0.00,,---,0.00,VWS V14.01,2013-07-29 06:54:00,
2013-07-29 01:59:00,76.9,67.2,29.80,East,79,3.0,8.0,72,0.00,,---,0.00,VWS V14.01,2013-07-29 06:59:00,
2013-07-29 02:04:00,76.9,67.2,29.80,East,88,4.0,8.0,72,0.00,,---,0.00,VWS V14.01,2013-07-29 07:04:00,
2013-07-29 02:09:00,76.8,67.1,29.80,East,85,3.0,9.0,72,0.00,,---,0.00,VWS V14.01,2013-07-29 07:09:00,
2013-07-29 02:14:00,76.7,67.0,29.80,East,98,4.0,9.0,72,0.00,,---,0.00,VWS V14.01,2013-07-29 07:14:00,
2013-07-29 02:19:00,76.6,66.9,29.80,East,96,4.0,9.0,72,0.00,,---,0.00,VWS V14.01,2013-07-29 07:19:00,
2013-07-29 02:25:00,76.6,67.3,29.80,ENE,77,4.0,9.0,73,0.00,,---,0.00,VWS V14.01,2013-07-29 07:25:00,
2013-07-29 02:30:00,76.5,67.2,29.80,ENE,77,4.0,9.0,73,0.00,,---,0.00,VWS V14.01,2013-07-29 07:30:00,
2013-07-29 02:35:00,76.5,67.2,29.80,East,80,4.0,6.0,73,0.00,,---,0.00,VWS V14.01,2013-07-29 07:35:00,
2013-07-29 02:40:00,76.4,67.1,29.80,ESE,106,3.0,7.0,73,0.00,,---,0.00,VWS V14.01,2013-07-29 07:40:00,
2013-07-29 02:45:00,76.3,67.4,29.80,ESE,110,4.0,7.0,74,0.00,,---,0.00,VWS V14.01,2013-07-29 07:45:00,
2013-07-29 02:50:00,76.2,67.3,29.80,ESE,104,4.0,7.0,74,0.00,,---,0.00,VWS V14.01,2013-07-29 07:50:00,
2013-07-29 02:55:00,76.3,67.4,29.80,East,98,5.0,7.0,74,0.00,,---,0.00,VWS V14.01,2013-07-29 07:55:00,
2013-07-29 03:00:00,76.3,67.8,29.79,ENE,63,5.0,7.0,75,0.00,,---,0.00,VWS V14.01,2013-07-29 08:00:00,
2013-07-29 03:05:00,76.2,67.7,29.79,ESE,114,7.0,7.0,75,0.00,,---,0.00,VWS V14.01,2013-07-29 08:05:00,
2013-07-29 03:10:00,76.2,67.7,29.79,ESE,120,7.0,7.0,75,0.00,,---,0.00,VWS V14.01,2013-07-29 08:10:00,
2013-07-29 03:15:00,76.2,67.7,29.79,SE,136,4.0,9.0,75,0.00,,---,0.00,VWS V14.01,2013-07-29 08:15:00,
2013-07-29 03:20:00,76.5,68.0,29.79,ESE,110,6.0,10.0,75,0.00,,---,0.00,VWS V14.01,2013-07-29 08:20:00,
2013-07-29 03:25:00,76.7,67.8,29.80,ENE,77,5.0,10.0,74,0.00,,---,0.00,VWS V14.01,2013-07-29 08:25:00,
2013-07-29 03:30:00,77.0,68.1,29.80,SE,139,4.0,10.0,74,0.00,,---,0.00,VWS V14.01,2013-07-29 08:30:00,
2013-07-29 03:35:00,77.0,68.1,29.79,SE,127,8.0,11.0,74,0.00,,---,0.00,VWS V14.01,2013-07-29 08:35:00,
2013-07-29 03:40:00,77.2,68.3,29.79,SE,138,5.0,11.0,74,0.00,,---,0.00,VWS V14.01,2013-07-29 08:40:00,
2013-07-29 03:45:00,77.2,68.3,29.79,ENE,77,4.0,11.0,74,0.00,,---,0.00,VWS V14.01,2013-07-29 08:45:00,
2013-07-29 03:51:00,77.2,68.3,29.79,East,98,4.0,11.0,74,0.00,,---,0.00,VWS V14.01,2013-07-29 08:51:00,
2013-07-29 03:56:00,77.0,68.5,29.79,East,89,6.0,11.0,75,0.00,,---,0.00,VWS V14.01,2013-07-29 08:56:00,
2013-07-29 04:01:00,77.0,68.5,29.79,ESE,105,5.0,6.0,75,0.00,,---,0.00,VWS V14.01,2013-07-29 09:01:00,
2013-07-29 04:06:00,76.9,68.8,29.79,ESE,115,4.0,8.0,76,0.00,,---,0.00,VWS V14.01,2013-07-29 09:06:00,
2013-07-29 04:11:00,76.8,68.7,29.79,SE,131,3.0,8.0,76,0.00,,---,0.00,VWS V14.01,2013-07-29 09:11:00,
2013-07-29 04:17:00,76.8,68.7,29.79,East,88,4.0,9.0,76,0.00,,---,0.00,VWS V14.01,2013-07-29 09:17:00,
2013-07-29 04:22:00,77.0,68.9,29.79,East,88,5.0,9.0,76,0.00,,---,0.00,VWS V14.01,2013-07-29 09:22:00,
2013-07-29 04:27:00,77.0,69.2,29.78,East,79,5.0,9.0,77,0.00,,---,0.00,VWS V14.01,2013-07-29 09:27:00,
2013-07-29 04:32:00,77.0,69.2,29.78,ENE,73,6.0,12.0,77,0.00,,---,0.00,VWS V14.01,2013-07-29 09:32:00,
2013-07-29 04:37:00,77.2,69.4,29.78,East,100,4.0,12.0,77,0.00,,---,0.00,VWS V14.01,2013-07-29 09:37:00,
2013-07-29 04:42:00,77.2,69.4,29.78,East,91,7.0,14.0,77,0.00,,---,0.00,VWS V14.01,2013-07-29 09:42:00,
2013-07-29 04:47:00,77.3,69.5,29.78,ESE,120,6.0,14.0,77,0.00,,---,0.00,VWS V14.01,2013-07-29 09:47:00,
2013-07-29 04:53:00,77.4,69.6,29.78,East,100,6.0,14.0,77,0.00,,---,0.00,VWS V14.01,2013-07-29 09:53:00,
2013-07-29 04:58:00,77.6,69.8,29.78,ESE,114,6.0,14.0,77,0.00,,---,0.00,VWS V14.01,2013-07-29 09:58:00,
2013-07-29 05:03:00,77.8,70.0,29.78,East,84,10.0,13.0,77,0.00,,---,0.00,VWS V14.01,2013-07-29 10:03:00,
2013-07-29 05:08:00,77.9,70.1,29.78,SE,127,8.0,13.0,77,0.00,,---,0.00,VWS V14.01,2013-07-29 10:08:00,
2013-07-29 05:13:00,78.1,70.3,29.78,East,101,9.0,15.0,77,0.00,,---,0.00,VWS V14.01,2013-07-29 10:13:00,
2013-07-29 05:18:00,78.0,70.2,29.78,ESE,108,7.0,15.0,77,0.00,,---,0.00,VWS V14.01,2013-07-29 10:18:00,
2013-07-29 05:24:00,77.9,70.5,29.78,ESE,103,8.0,15.0,78,0.00,,---,0.00,VWS V14.01,2013-07-29 10:24:00,
2013-07-29 05:29:00,77.9,70.5,29.78,SE,136,6.0,15.0,78,0.00,,---,0.00,VWS V14.01,2013-07-29 10:29:00,
2013-07-29 05:34:00,77.9,70.5,29.78,SE,146,5.0,13.0,78,0.00,,---,0.00,VWS V14.01,2013-07-29 10:34:00,
2013-07-29 05:39:00,77.9,70.5,29.78,ESE,105,6.0,13.0,78,0.00,,---,0.00,VWS V14.01,2013-07-29 10:39:00,
2013-07-29 05:44:00,77.9,70.5,29.78,ESE,117,8.0,13.0,78,0.00,,---,0.00,VWS V14.01,2013-07-29 10:44:00,
2013-07-29 05:50:00,77.9,70.9,29.78,ESE,120,5.0,13.0,79,0.00,,---,0.00,VWS V14.01,2013-07-29 10:50:00,
2013-07-29 05:56:00,77.8,70.8,29.78,ESE,106,8.0,13.0,79,0.00,,---,0.00,VWS V14.01,2013-07-29 10:56:00,
2013-07-29 06:01:00,77.6,70.6,29.78,East,82,8.0,8.0,79,0.00,,---,0.00,VWS V14.01,2013-07-29 11:01:00,
2013-07-29 06:06:00,77.5,70.8,29.78,ESE,115,8.0,11.0,80,0.00,,---,0.00,VWS V14.01,2013-07-29 11:06:00,
2013-07-29 06:11:00,77.4,70.8,29.78,ESE,110,9.0,12.0,80,0.00,,---,0.00,VWS V14.01,2013-07-29 11:11:00,
2013-07-29 06:17:00,77.5,70.8,29.78,ESE,123,6.0,12.0,80,0.00,,---,0.00,VWS V14.01,2013-07-29 11:17:00,
2013-07-29 06:22:00,77.5,70.8,29.79,SE,130,7.0,13.0,80,0.00,,---,0.00,VWS V14.01,2013-07-29 11:22:00,
2013-07-29 06:27:00,77.5,70.8,29.79,ESE,107,5.0,13.0,80,0.00,,---,0.00,VWS V14.01,2013-07-29 11:27:00,
2013-07-29 06:32:00,77.5,70.8,29.79,East,82,6.0,9.0,80,0.00,,---,0.00,VWS V14.01,2013-07-29 11:32:00,
2013-07-29 06:37:00,77.5,70.8,29.79,SE,127,8.0,11.0,80,0.00,,---,0.00,VWS V14.01,2013-07-29 11:37:00,
2013-07-29 06:42:00,77.5,71.2,29.79,ESE,105,7.0,11.0,81,0.00,,---,0.00,VWS V14.01,2013-07-29 11:42:00,
2013-07-29 06:48:00,77.4,71.1,29.79,ESE,106,4.0,11.0,81,0.00,,---,0.00,VWS V14.01,2013-07-29 11:48:00,
2013-07-29 06:53:00,77.4,71.1,29.79,SE,135,6.0,11.0,81,0.00,,---,0.00,VWS V14.01,2013-07-29 11:53:00,
2013-07-29 06:59:00,77.3,71.0,29.79,ESE,106,7.0,11.0,81,0.00,,---,0.00,VWS V14.01,2013-07-29 11:59:00,
2013-07-29 07:04:00,77.3,71.0,29.79,ESE,110,3.0,10.0,81,0.00,,---,0.00,VWS V14.01,2013-07-29 12:04:00,
2013-07-29 07:09:00,77.3,71.0,29.79,ESE,113,7.0,10.0,81,0.00,,---,0.00,VWS V14.01,2013-07-29 12:09:00,
2013-07-29 07:15:00,77.4,71.5,29.80,ESE,120,6.0,11.0,82,0.00,,---,0.00,VWS V14.01,2013-07-29 12:15:00,
2013-07-29 07:20:00,77.4,71.5,29.80,ESE,105,6.0,11.0,82,0.00,,---,0.00,VWS V14.01,2013-07-29 12:20:00,
2013-07-29 07:25:00,77.6,71.3,29.80,SE,127,8.0,11.0,81,0.00,,---,0.00,VWS V14.01,2013-07-29 12:25:00,
2013-07-29 07:30:00,77.7,71.4,29.80,ESE,117,3.0,11.0,81,0.00,,---,0.00,VWS V14.01,2013-07-29 12:30:00,
2013-07-29 07:36:00,77.8,71.5,29.80,ESE,106,7.0,12.0,81,0.00,,---,0.00,VWS V14.01,2013-07-29 12:36:00,
2013-07-29 07:41:00,77.7,71.4,29.80,ESE,116,3.0,12.0,81,0.00,,---,0.00,VWS V14.01,2013-07-29 12:41:00,
2013-07-29 07:46:00,77.7,71.8,29.80,ESE,120,6.0,12.0,82,0.00,,---,0.00,VWS V14.01,2013-07-29 12:46:00,
2013-07-29 07:51:00,77.8,71.9,29.80,SE,146,4.0,12.0,82,0.00,,---,0.00,VWS V14.01,2013-07-29 12:51:00,
2013-07-29 07:56:00,78.3,72.0,29.80,SE,136,10.0,12.0,81,0.00,,---,0.00,VWS V14.01,2013-07-29 12:56:00,
2013-07-29 08:02:00,78.7,72.0,29.80,ENE,63,7.0,10.0,80,0.00,,---,0.00,VWS V14.01,2013-07-29 13:02:00,
2013-07-29 08:07:00,79.2,72.5,29.80,SSE,155,4.0,10.0,80,0.00,,---,0.00,VWS V14.01,2013-07-29 13:07:00,
2013-07-29 08:12:00,79.5,72.4,29.80,ESE,120,6.0,12.0,79,0.00,,---,0.00,VWS V14.01,2013-07-29 13:12:00,
2013-07-29 08:17:00,79.9,72.4,29.81,East,94,7.0,12.0,78,0.00,,---,0.00,VWS V14.01,2013-07-29 13:17:00,
2013-07-29 08:23:00,79.9,72.4,29.81,East,91,6.0,14.0,78,0.00,,---,0.00,VWS V14.01,2013-07-29 13:23:00,
2013-07-29 08:28:00,80.2,72.7,29.81,East,100,4.0,14.0,78,0.00,,---,0.00,VWS V14.01,2013-07-29 13:28:00,
2013-07-29 08:33:00,80.7,72.8,29.81,SE,141,6.0,11.0,77,0.00,,---,0.00,VWS V14.01,2013-07-29 13:33:00,
2013-07-29 08:38:00,80.9,73.0,29.81,SSE,159,13.0,14.0,77,0.00,,---,0.00,VWS V14.01,2013-07-29 13:38:00,
2013-07-29 08:43:00,81.2,72.9,29.81,SE,134,7.0,15.0,76,0.00,,---,0.00,VWS V14.01,2013-07-29 13:43:00,
2013-07-29 08:48:00,81.6,72.9,29.81,SSE,167,9.0,15.0,75,0.00,,---,0.00,VWS V14.01,2013-07-29 13:48:00,
2013-07-29 08:53:00,81.9,72.8,29.81,South,186,10.0,18.0,74,0.00,,---,0.00,VWS V14.01,2013-07-29 13:53:00,
2013-07-29 08:59:00,82.4,72.9,29.81,SE,136,12.0,18.0,73,0.00,,---,0.00,VWS V14.01,2013-07-29 13:59:00,
2013-07-29 09:04:00,82.7,72.8,29.81,SSE,167,7.0,17.0,72,0.00,,---,0.00,VWS V14.01,2013-07-29 14:04:00,
2013-07-29 09:09:00,82.9,72.9,29.81,SE,140,9.0,17.0,72,0.00,,---,0.00,VWS V14.01,2013-07-29 14:09:00,
2013-07-29 09:14:00,82.9,72.9,29.81,SE,134,11.0,17.0,72,0.00,,---,0.00,VWS V14.01,2013-07-29 14:14:00,
2013-07-29 09:19:00,83.1,73.1,29.81,SSE,148,9.0,17.0,72,0.00,,---,0.00,VWS V14.01,2013-07-29 14:19:00,
2013-07-29 09:24:00,83.8,73.0,29.81,ESE,121,13.0,17.0,70,0.00,,---,0.00,VWS V14.01,2013-07-29 14:24:00,
2013-07-29 09:30:00,84.4,73.1,29.81,ESE,117,14.0,19.0,69,0.00,,---,0.00,VWS V14.01,2013-07-29 14:30:00,
2013-07-29 09:35:00,84.9,72.7,29.81,SE,141,12.0,19.0,67,0.00,,---,0.00,VWS V14.01,2013-07-29 14:35:00,
2013-07-29 09:40:00,85.6,73.4,29.81,SE,134,14.0,19.0,67,0.00,,---,0.00,VWS V14.01,2013-07-29 14:40:00,
2013-07-29 09:45:00,86.0,73.8,29.81,ESE,120,8.0,19.0,67,0.00,,---,0.00,VWS V14.01,2013-07-29 14:45:00,
2013-07-29 09:50:00,86.3,73.6,29.81,East,84,14.0,19.0,66,0.00,,---,0.00,VWS V14.01,2013-07-29 14:50:00,
2013-07-29 09:55:00,86.3,73.2,29.81,SE,135,11.0,19.0,65,0.00,,---,0.00,VWS V14.01,2013-07-29 14:55:00,
2013-07-29 10:01:00,86.8,73.2,29.81,SSE,152,9.0,12.0,64,0.00,,---,0.00,VWS V14.01,2013-07-29 15:01:00,
2013-07-29 10:06:00,87.2,73.1,29.81,South,169,12.0,20.0,63,0.00,,---,0.00,VWS V14.01,2013-07-29 15:06:00,
2013-07-29 10:11:00,87.2,73.1,29.81,SSE,152,13.0,20.0,63,0.00,,---,0.00,VWS V14.01,2013-07-29 15:11:00,
2013-07-29 10:16:00,87.0,72.9,29.81,SE,145,17.0,21.0,63,0.00,,---,0.00,VWS V14.01,2013-07-29 15:16:00,
2013-07-29 10:21:00,86.5,72.4,29.81,SE,143,11.0,21.0,63,0.00,,---,0.00,VWS V14.01,2013-07-29 15:21:00,
2013-07-29 10:26:00,86.2,72.6,29.81,SSE,158,11.0,21.0,64,0.00,,---,0.00,VWS V14.01,2013-07-29 15:26:00,
2013-07-29 10:32:00,86.1,73.0,29.81,SSE,154,13.0,16.0,65,0.00,,---,0.00,VWS V14.01,2013-07-29 15:32:00,
2013-07-29 10:37:00,86.3,73.2,29.81,SE,128,8.0,16.0,65,0.00,,---,0.00,VWS V14.01,2013-07-29 15:37:00,
2013-07-29 10:42:00,86.3,73.2,29.81,SSE,158,12.0,16.0,65,0.00,,---,0.00,VWS V14.01,2013-07-29 15:42:00,
2013-07-29 10:48:00,86.2,73.1,29.81,ESE,114,11.0,17.0,65,0.00,,---,0.00,VWS V14.01,2013-07-29 15:48:00,
2013-07-29 10:53:00,86.3,73.2,29.81,SSE,150,13.0,17.0,65,0.00,,---,0.00,VWS V14.01,2013-07-29 15:53:00,
2013-07-29 10:58:00,86.6,73.0,29.81,SE,124,12.0,20.0,64,0.00,,---,0.00,VWS V14.01,2013-07-29 15:58:00,
2013-07-29 11:03:00,87.1,73.4,29.81,SSE,155,5.0,17.0,64,0.00,,---,0.00,VWS V14.01,2013-07-29 16:03:00,
2013-07-29 11:08:00,87.8,74.1,29.81,SE,143,5.0,18.0,64,0.00,,---,0.00,VWS V14.01,2013-07-29 16:08:00,
2013-07-29 11:13:00,88.9,73.7,29.81,SSE,154,10.0,18.0,61,0.00,,---,0.00,VWS V14.01,2013-07-29 16:13:00,
2013-07-29 11:18:00,89.3,73.6,29.81,SSE,159,13.0,18.0,60,0.00,,---,0.00,VWS V14.01,2013-07-29 16:18:00,
2013-07-29 11:24:00,89.8,74.1,29.81,South,186,8.0,18.0,60,0.00,,---,0.00,VWS V14.01,2013-07-29 16:24:00,
2013-07-29 11:29:00,90.5,74.2,29.81,SSE,167,11.0,19.0,59,0.00,,---,0.00,VWS V14.01,2013-07-29 16:29:00,
2013-07-29 11:34:00,90.9,74.6,29.81,South,190,16.0,16.0,59,0.00,,---,0.00,VWS V14.01,2013-07-29 16:34:00,
2013-07-29 11:39:00,90.7,73.4,29.81,SSE,160,11.0,18.0,57,0.00,,---,0.00,VWS V14.01,2013-07-29 16:39:00,
2013-07-29 11:45:00,90.6,73.8,29.81,SSE,148,13.0,26.0,58,0.00,,---,0.00,VWS V14.01,2013-07-29 16:45:00,
2013-07-29 11:50:00,90.6,73.3,29.81,SSE,157,12.0,26.0,57,0.00,,---,0.00,VWS V14.01,2013-07-29 16:50:00,
2013-07-29 11:55:00,90.9,73.6,29.81,SSE,148,13.0,26.0,57,0.00,,---,0.00,VWS V14.01,2013-07-29 16:55:00,
2013-07-29 12:00:00,91.0,73.1,29.81,SE,140,11.0,26.0,56,0.00,,---,0.00,VWS V14.01,2013-07-29 17:00:00,
2013-07-29 12:05:00,91.2,73.8,29.81,SSW,195,8.0,15.0,57,0.00,,---,0.00,VWS V14.01,2013-07-29 17:05:00,
2013-07-29 12:10:00,91.7,74.3,29.81,SE,141,12.0,17.0,57,0.00,,---,0.00,VWS V14.01,2013-07-29 17:10:00,
2013-07-29 12:16:00,91.9,74.5,29.81,ESE,117,9.0,18.0,57,0.00,,---,0.00,VWS V14.01,2013-07-29 17:16:00,
2013-07-29 12:21:00,92.0,73.5,29.81,South,184,11.0,18.0,55,0.00,,---,0.00,VWS V14.01,2013-07-29 17:21:00,
2013-07-29 12:26:00,92.3,74.3,29.80,SE,143,10.0,18.0,56,0.00,,---,0.00,VWS V14.01,2013-07-29 17:26:00,
2013-07-29 12:31:00,92.5,72.9,29.80,SSE,148,16.0,16.0,53,0.00,,---,0.00,VWS V14.01,2013-07-29 17:31:00,
2013-07-29 12:37:00,92.4,74.4,29.80,SSE,162,11.0,16.0,56,0.00,,---,0.00,VWS V14.01,2013-07-29 17:37:00,
2013-07-29 12:42:00,92.6,73.5,29.80,SE,138,13.0,16.0,54,0.00,,---,0.00,VWS V14.01,2013-07-29 17:42:00,
2013-07-29 12:47:00,92.9,73.8,29.80,SSE,167,10.0,17.0,54,0.00,,---,0.00,VWS V14.01,2013-07-29 17:47:00,
2013-07-29 12:52:00,92.6,73.5,29.80,SE,131,17.0,20.0,54,0.00,,---,0.00,VWS V14.01,2013-07-29 17:52:00,
2013-07-29 12:57:00,92.4,73.9,29.80,SSE,149,12.0,20.0,55,0.00,,---,0.00,VWS V14.01,2013-07-29 17:57:00,
2013-07-29 13:03:00,92.2,73.7,29.80,SSE,156,4.0,15.0,55,0.00,,---,0.00,VWS V14.01,2013-07-29 18:03:00,
2013-07-29 13:08:00,92.7,73.6,29.79,SSW,203,8.0,22.0,54,0.00,,---,0.00,VWS V14.01,2013-07-29 18:08:00,
2013-07-29 13:13:00,92.6,74.1,29.79,SSE,149,19.0,22.0,55,0.00,,---,0.00,VWS V14.01,2013-07-29 18:13:00,
2013-07-29 13:18:00,93.1,74.0,29.79,SSE,167,7.0,22.0,54,0.00,,---,0.00,VWS V14.01,2013-07-29 18:18:00,
2013-07-29 13:24:00,92.7,73.1,29.79,SSW,208,10.0,22.0,53,0.00,,---,0.00,VWS V14.01,2013-07-29 18:24:00,
2013-07-29 13:29:00,92.4,73.9,29.78,SSE,148,10.0,22.0,55,0.00,,---,0.00,VWS V14.01,2013-07-29 18:29:00,
2013-07-29 13:34:00,92.5,74.5,29.78,SE,135,6.0,16.0,56,0.00,,---,0.00,VWS V14.01,2013-07-29 18:34:00,
2013-07-29 13:39:00,92.8,73.2,29.78,SSE,153,10.0,18.0,53,0.00,,---,0.00,VWS V14.01,2013-07-29 18:39:00,
2013-07-29 13:45:00,93.1,73.4,29.78,SSW,204,10.0,19.0,53,0.00,,---,0.00,VWS V14.01,2013-07-29 18:45:00,
2013-07-29 13:50:00,93.6,73.3,29.78,SSW,196,8.0,19.0,52,0.00,,---,0.00,VWS V14.01,2013-07-29 18:50:00,
2013-07-29 13:55:00,93.9,73.6,29.77,SE,146,10.0,19.0,52,0.00,,---,0.00,VWS V14.01,2013-07-29 18:55:00,
2013-07-29 14:00:00,94.1,74.4,29.78,SE,141,15.0,23.0,53,0.00,,---,0.00,VWS V14.01,2013-07-29 19:00:00,
2013-07-29 14:05:00,94.1,73.2,29.78,SSE,149,15.0,18.0,51,0.00,,---,0.00,VWS V14.01,2013-07-29 19:05:00,
2013-07-29 14:10:00,94.4,72.9,29.78,SE,143,6.0,28.0,50,0.00,,---,0.00,VWS V14.01,2013-07-29 19:10:00,
2013-07-29 14:15:00,93.7,75.6,29.78,SE,139,15.0,28.0,56,0.00,,---,0.00,VWS V14.01,2013-07-29 19:15:00,
2013-07-29 14:21:00,94.0,75.9,29.77,SE,142,8.0,28.0,56,0.00,,---,0.00,VWS V14.01,2013-07-29 19:21:00,
2013-07-29 14:28:00,94.0,75.9,29.77,ESE,106,8.0,28.0,56,0.00,,---,0.00,VWS V14.01,2013-07-29 19:28:00,
2013-07-29 14:33:00,94.8,72.7,29.77,SE,124,8.0,15.0,49,0.00,,---,0.00,VWS V14.01,2013-07-29 19:33:00,
2013-07-29 14:38:00,95.3,73.1,29.77,SSE,148,10.0,21.0,49,0.00,,---,0.00,VWS V14.01,2013-07-29 19:38:00,
2013-07-29 14:43:00,95.6,73.4,29.77,SE,139,10.0,21.0,49,0.00,,---,0.00,VWS V14.01,2013-07-29 19:43:00,
2013-07-29 14:48:00,95.3,73.1,29.77,South,188,10.0,21.0,49,0.00,,---,0.00,VWS V14.01,2013-07-29 19:48:00,
2013-07-29 14:53:00,95.5,72.7,29.77,South,188,9.0,22.0,48,0.00,,---,0.00,VWS V14.01,2013-07-29 19:53:00,
2013-07-29 14:58:00,95.5,72.7,29.77,SW,218,16.0,22.0,48,0.00,,---,0.00,VWS V14.01,2013-07-29 19:58:00,
2013-07-29 15:04:00,95.6,72.8,29.76,SSE,158,9.0,18.0,48,0.00,,---,0.00,VWS V14.01,2013-07-29 20:04:00,
2013-07-29 15:09:00,95.9,73.1,29.76,South,172,10.0,20.0,48,0.00,,---,0.00,VWS V14.01,2013-07-29 20:09:00,
2013-07-29 15:14:00,95.9,72.4,29.76,SE,129,16.0,20.0,47,0.00,,---,0.00,VWS V14.01,2013-07-29 20:14:00,
2013-07-29 15:20:00,95.9,72.4,29.76,SE,145,9.0,22.0,47,0.00,,---,0.00,VWS V14.01,2013-07-29 20:20:00,
2013-07-29 15:26:00,96.5,72.3,29.76,SE,142,8.0,22.0,46,0.00,,---,0.00,VWS V14.01,2013-07-29 20:26:00,
2013-07-29 15:31:00,96.5,72.3,29.76,SSE,158,13.0,21.0,46,0.00,,---,0.00,VWS V14.01,2013-07-29 20:31:00,
2013-07-29 15:36:00,95.9,71.8,29.75,SSE,159,22.0,22.0,46,0.00,,---,0.00,VWS V14.01,2013-07-29 20:36:00,
2013-07-29 15:41:00,95.9,73.1,29.76,SE,142,13.0,22.0,48,0.00,,---,0.00,VWS V14.01,2013-07-29 20:41:00,
2013-07-29 15:46:00,95.9,72.4,29.75,SSE,155,15.0,22.0,47,0.00,,---,0.00,VWS V14.01,2013-07-29 20:46:00,
2013-07-29 15:51:00,96.1,73.2,29.75,South,186,11.0,22.0,48,0.00,,---,0.00,VWS V14.01,2013-07-29 20:51:00,
2013-07-29 15:56:00,96.6,73.7,29.75,SE,131,12.0,22.0,48,0.00,,---,0.00,VWS V14.01,2013-07-29 20:56:00,
2013-07-29 16:02:00,96.9,72.7,29.74,SSE,149,13.0,13.0,46,0.00,,---,0.00,VWS V14.01,2013-07-29 21:02:00,
2013-07-29 16:07:00,96.2,72.7,29.74,SE,131,11.0,21.0,47,0.00,,---,0.00,VWS V14.01,2013-07-29 21:07:00,
2013-07-29 16:12:00,95.6,74.0,29.74,SE,136,11.0,25.0,50,0.00,,---,0.00,VWS V14.01,2013-07-29 21:12:00,
2013-07-29 16:17:00,95.1,73.6,29.74,South,180,14.0,25.0,50,0.00,,---,0.00,VWS V14.01,2013-07-29 21:17:00,
2013-07-29 16:22:00,95.4,74.4,29.75,SSE,167,15.0,25.0,51,0.00,,---,0.00,VWS V14.01,2013-07-29 21:22:00,
2013-07-29 16:28:00,95.2,73.6,29.74,ESE,108,19.0,26.0,50,0.00,,---,0.00,VWS V14.01,2013-07-29 21:28:00,
2013-07-29 16:33:00,95.0,74.1,29.75,SE,135,15.0,21.0,51,0.00,,---,0.00,VWS V14.01,2013-07-29 21:33:00,
2013-07-29 16:38:00,93.3,73.6,29.74,ESE,107,9.0,26.0,53,0.00,,---,0.00,VWS V14.01,2013-07-29 21:38:00,
2013-07-29 16:43:00,92.2,73.7,29.74,ESE,112,20.0,28.0,55,0.00,,---,0.00,VWS V14.01,2013-07-29 21:43:00,
2013-07-29 16:48:00,92.0,73.5,29.74,SW,217,11.0,28.0,55,0.00,,---,0.00,VWS V14.01,2013-07-29 21:48:00,
2013-07-29 16:53:00,92.3,73.8,29.74,SSE,158,19.0,28.0,55,0.00,,---,0.00,VWS V14.01,2013-07-29 21:53:00,
2013-07-29 16:59:00,92.8,74.3,29.74,SSE,150,19.0,28.0,55,0.00,,---,0.00,VWS V14.01,2013-07-29 21:59:00,
2013-07-29 17:04:00,93.5,74.4,29.74,SE,142,10.0,30.0,54,0.00,,---,0.00,VWS V14.01,2013-07-29 22:04:00,
2013-07-29 17:09:00,92.9,74.4,29.73,ESE,120,15.0,30.0,55,0.00,,---,0.00,VWS V14.01,2013-07-29 22:09:00,
2013-07-29 17:14:00,92.7,74.2,29.73,South,179,10.0,30.0,55,0.00,,---,0.00,VWS V14.01,2013-07-29 22:14:00,
2013-07-29 17:19:00,92.9,73.8,29.73,SSE,148,13.0,30.0,54,0.00,,---,0.00,VWS V14.01,2013-07-29 22:19:00,
2013-07-29 17:25:00,93.1,74.0,29.73,SE,139,14.0,30.0,54,0.00,,---,0.00,VWS V14.01,2013-07-29 22:25:00,
2013-07-29 17:30:00,92.9,73.8,29.73,ESE,117,12.0,30.0,54,0.00,,---,0.00,VWS V14.01,2013-07-29 22:30:00,
2013-07-29 17:35:00,92.9,73.8,29.73,SE,139,12.0,19.0,54,0.00,,---,0.00,VWS V14.01,2013-07-29 22:35:00,
2013-07-29 17:40:00,93.0,73.9,29.73,South,169,10.0,19.0,54,0.00,,---,0.00,VWS V14.01,2013-07-29 22:40:00,
2013-07-29 17:45:00,93.0,73.9,29.72,SSE,154,12.0,19.0,54,0.00,,---,0.00,VWS V14.01,2013-07-29 22:45:00,
2013-07-29 17:50:00,93.2,74.1,29.72,SE,143,14.0,21.0,54,0.00,,---,0.00,VWS V14.01,2013-07-29 22:50:00,
2013-07-29 17:56:00,93.4,74.3,29.71,ESE,114,10.0,21.0,54,0.00,,---,0.00,VWS V14.01,2013-07-29 22:56:00,
2013-07-29 18:01:00,93.5,73.8,29.71,SE,127,15.0,16.0,53,0.00,,---,0.00,VWS V14.01,2013-07-29 23:01:00,
2013-07-29 18:06:00,93.4,73.7,29.71,SE,134,14.0,23.0,53,0.00,,---,0.00,VWS V14.01,2013-07-29 23:06:00,
2013-07-29 18:11:00,93.4,73.7,29.71,SE,139,11.0,24.0,53,0.00,,---,0.00,VWS V14.01,2013-07-29 23:11:00,
2013-07-29 18:16:00,93.4,74.3,29.70,SE,135,8.0,24.0,54,0.00,,---,0.00,VWS V14.01,2013-07-29 23:16:00,
2013-07-29 18:21:00,93.4,73.7,29.70,South,170,12.0,24.0,53,0.00,,---,0.00,VWS V14.01,2013-07-29 23:21:00,
2013-07-29 18:26:00,93.4,73.7,29.70,East,98,8.0,24.0,53,0.00,,---,0.00,VWS V14.01,2013-07-29 23:26:00,
2013-07-29 18:32:00,93.7,74.6,29.70,SE,135,11.0,19.0,54,0.00,,---,0.00,VWS V14.01,2013-07-29 23:32:00,
2013-07-29 18:37:00,93.7,74.0,29.70,SE,142,15.0,19.0,53,0.00,,---,0.00,VWS V14.01,2013-07-29 23:37:00,
2013-07-29 18:42:00,93.7,73.4,29.70,SE,135,17.0,21.0,52,0.00,,---,0.00,VWS V14.01,2013-07-29 23:42:00,
2013-07-29 18:47:00,93.7,73.4,29.70,SE,143,14.0,21.0,52,0.00,,---,0.00,VWS V14.01,2013-07-29 23:47:00,
2013-07-29 18:52:00,93.7,72.8,29.70,SSE,158,13.0,28.0,51,0.00,,---,0.00,VWS V14.01,2013-07-29 23:52:00,
2013-07-29 18:58:00,93.9,73.0,29.70,SSE,148,14.0,28.0,51,0.00,,---,0.00,VWS V14.01,2013-07-29 23:58:00,
2013-07-29 19:03:00,94.1,72.6,29.70,East,96,9.0,20.0,50,0.00,,---,0.00,VWS V14.01,2013-07-30 00:03:00,
2013-07-29 19:08:00,94.2,72.1,29.71,SE,131,10.0,20.0,49,0.00,,---,0.00,VWS V14.01,2013-07-30 00:08:00,
2013-07-29 19:13:00,94.3,72.8,29.71,South,177,10.0,23.0,50,0.00,,---,0.00,VWS V14.01,2013-07-30 00:13:00,
2013-07-29 19:18:00,94.4,72.3,29.71,SE,139,9.0,23.0,49,0.00,,---,0.00,VWS V14.01,2013-07-30 00:18:00,
2013-07-29 19:23:00,94.6,72.5,29.71,SSE,148,12.0,23.0,49,0.00,,---,0.00,VWS V14.01,2013-07-30 00:23:00,
2013-07-29 19:29:00,94.8,72.1,29.71,ESE,121,10.0,23.0,48,0.00,,---,0.00,VWS V14.01,2013-07-30 00:29:00,
2013-07-29 19:34:00,95.3,70.0,29.71,SE,135,15.0,18.0,44,0.00,,---,0.00,VWS V14.01,2013-07-30 00:34:00,
2013-07-29 19:40:00,95.5,70.1,29.71,SSE,168,10.0,23.0,44,0.00,,---,0.00,VWS V14.01,2013-07-30 00:40:00,
2013-07-29 19:45:00,95.5,70.8,29.72,SSE,155,13.0,23.0,45,0.00,,---,0.00,VWS V14.01,2013-07-30 00:45:00,
2013-07-29 19:50:00,95.4,71.3,29.71,SSE,155,11.0,23.0,46,0.00,,---,0.00,VWS V14.01,2013-07-30 00:50:00,
2013-07-29 19:55:00,95.0,71.6,29.71,SSE,165,12.0,23.0,47,0.00,,---,0.00,VWS V14.01,2013-07-30 00:55:00,
2013-07-29 20:00:00,94.8,70.8,29.71,SSE,158,13.0,23.0,46,0.00,,---,0.00,VWS V14.01,2013-07-30 01:00:00,
2013-07-29 20:05:00,94.5,71.2,29.72,SE,124,8.0,15.0,47,0.00,,---,0.00,VWS V14.01,2013-07-30 01:05:00,
2013-07-29 20:11:00,93.9,71.2,29.72,SE,145,14.0,15.0,48,0.00,,---,0.00,VWS V14.01,2013-07-30 01:11:00,
2013-07-29 20:16:00,93.3,70.7,29.72,SSE,165,9.0,18.0,48,0.00,,---,0.00,VWS V14.01,2013-07-30 01:16:00,
2013-07-29 20:21:00,93.1,70.5,29.73,SE,131,10.0,19.0,48,0.00,,---,0.00,VWS V14.01,2013-07-30 01:21:00,
2013-07-29 20:27:00,92.7,69.5,29.73,SSE,160,8.0,19.0,47,0.00,,---,0.00,VWS V14.01,2013-07-30 01:27:00,
2013-07-29 20:32:00,92.5,69.3,29.73,SSE,156,16.0,17.0,47,0.00,,---,0.00,VWS V14.01,2013-07-30 01:32:00,
2013-07-29 20:37:00,92.3,69.2,29.74,ESE,111,8.0,17.0,47,0.00,,---,0.00,VWS V14.01,2013-07-30 01:37:00,
2013-07-29 20:43:00,91.8,68.7,29.74,SSE,165,10.0,17.0,47,0.00,,---,0.00,VWS V14.01,2013-07-30 01:43:00,
2013-07-29 20:48:00,91.5,69.1,29.74,ESE,120,12.0,17.0,48,0.00,,---,0.00,VWS V14.01,2013-07-30 01:48:00,
2013-07-29 20:53:00,91.3,68.3,29.73,SE,142,13.0,17.0,47,0.00,,---,0.00,VWS V14.01,2013-07-30 01:53:00,
2013-07-29 20:58:00,91.1,68.1,29.73,SSE,160,11.0,17.0,47,0.00,,---,0.00,VWS V14.01,2013-07-30 01:58:00,
2013-07-29 21:03:00,91.0,68.0,29.73,SSE,155,13.0,16.0,47,0.00,,---,0.00,VWS V14.01,2013-07-30 02:03:00,
2013-07-29 21:09:00,90.9,67.9,29.73,SE,127,8.0,18.0,47,0.00,,---,0.00,VWS V14.01,2013-07-30 02:09:00,
2013-07-29 21:14:00,90.7,67.7,29.73,SSW,208,9.0,18.0,47,0.00,,---,0.00,VWS V14.01,2013-07-30 02:14:00,
2013-07-29 21:19:00,90.5,68.2,29.73,SE,143,12.0,19.0,48,0.00,,---,0.00,VWS V14.01,2013-07-30 02:19:00,
2013-07-29 21:24:00,90.4,68.1,29.72,SSE,155,14.0,19.0,48,0.00,,---,0.00,VWS V14.01,2013-07-30 02:24:00,
2013-07-29 21:29:00,90.2,67.9,29.72,SSE,152,14.0,19.0,48,0.00,,---,0.00,VWS V14.01,2013-07-30 02:29:00,
2013-07-29 21:34:00,90.1,67.8,29.73,SE,146,14.0,17.0,48,0.00,,---,0.00,VWS V14.01,2013-07-30 02:34:00,
2013-07-29 21:40:00,90.0,67.7,29.73,SSE,150,11.0,23.0,48,0.00,,---,0.00,VWS V14.01,2013-07-30 02:40:00,
2013-07-29 21:45:00,89.8,68.1,29.73,SSE,160,13.0,23.0,49,0.00,,---,0.00,VWS V14.01,2013-07-30 02:45:00,
2013-07-29 21:51:00,89.7,68.0,29.74,SE,136,9.0,23.0,49,0.00,,---,0.00,VWS V14.01,2013-07-30 02:51:00,
2013-07-29 21:56:00,89.6,67.9,29.74,SSE,160,13.0,23.0,49,0.00,,---,0.00,VWS V14.01,2013-07-30 02:56:00,
2013-07-29 22:01:00,89.5,67.8,29.74,SSE,148,11.0,17.0,49,0.00,,---,0.00,VWS V14.01,2013-07-30 03:01:00,
2013-07-29 22:06:00,89.3,67.7,29.75,SSE,162,12.0,17.0,49,0.00,,---,0.00,VWS V14.01,2013-07-30 03:06:00,
2013-07-29 22:12:00,89.1,67.5,29.75,SSE,162,8.0,18.0,49,0.00,,---,0.00,VWS V14.01,2013-07-30 03:12:00,
2013-07-29 22:17:00,88.8,67.2,29.75,ESE,122,7.0,18.0,49,0.00,,---,0.00,VWS V14.01,2013-07-30 03:17:00,
2013-07-29 22:22:00,88.5,67.5,29.76,ESE,114,6.0,18.0,50,0.00,,---,0.00,VWS V14.01,2013-07-30 03:22:00,
2013-07-29 22:28:00,88.3,67.3,29.76,SSE,152,6.0,18.0,50,0.00,,---,0.00,VWS V14.01,2013-07-30 03:28:00,
2013-07-29 22:33:00,87.8,67.4,29.76,ESE,121,9.0,11.0,51,0.00,,---,0.00,VWS V14.01,2013-07-30 03:33:00,
2013-07-29 22:38:00,87.4,67.6,29.76,ESE,121,9.0,14.0,52,0.00,,---,0.00,VWS V14.01,2013-07-30 03:38:00,
2013-07-29 22:43:00,87.2,67.4,29.77,SE,128,6.0,14.0,52,0.00,,---,0.00,VWS V14.01,2013-07-30 03:43:00,
2013-07-29 22:48:00,87.2,67.4,29.77,SSE,156,8.0,15.0,52,0.00,,---,0.00,VWS V14.01,2013-07-30 03:48:00,
2013-07-29 22:53:00,87.5,67.2,29.77,SE,134,10.0,15.0,51,0.00,,---,0.00,VWS V14.01,2013-07-30 03:53:00,
2013-07-29 22:59:00,87.7,67.3,29.78,SE,134,17.0,17.0,51,0.00,,---,0.00,VWS V14.01,2013-07-30 03:59:00,
2013-07-29 23:01:00,87.7,67.3,29.78,SE,146,16.0,16.0,51,0.00,,---,0.00,VWS V14.01,2013-07-30 04:01:00,
2013-07-29 23:02:00,87.8,67.4,29.78,SSE,150,16.0,17.0,51,0.00,,---,0.00,VWS V14.01,2013-07-30 04:02:00,
2013-07-29 23:03:00,87.8,67.4,29.78,South,174,12.0,17.0,51,0.00,,---,0.00,VWS V14.01,2013-07-30 04:03:00,
2013-07-29 23:08:00,87.6,67.8,29.78,SE,146,12.0,17.0,52,0.00,,---,0.00,VWS V14.01,2013-07-30 04:08:00,
2013-07-29 23:13:00,87.4,68.2,29.78,South,191,9.0,17.0,53,0.00,,---,0.00,VWS V14.01,2013-07-30 04:13:00,
2013-07-29 23:18:00,87.1,67.9,29.78,South,170,10.0,17.0,53,0.00,,---,0.00,VWS V14.01,2013-07-30 04:18:00,
2013-07-29 23:23:00,86.7,68.1,29.78,SSE,149,9.0,17.0,54,0.00,,---,0.00,VWS V14.01,2013-07-30 04:23:00,
2013-07-29 23:28:00,86.5,67.9,29.78,SSE,159,7.0,17.0,54,0.00,,---,0.00,VWS V14.01,2013-07-30 04:28:00,
2013-07-29 23:33:00,86.2,68.2,29.78,SSE,155,8.0,9.0,55,0.00,,---,0.00,VWS V14.01,2013-07-30 04:33:00,
2013-07-29 23:38:00,86.0,68.5,29.78,ESE,121,9.0,10.0,56,0.00,,---,0.00,VWS V14.01,2013-07-30 04:38:00,
2013-07-29 23:43:00,85.9,68.9,29.78,SSE,147,7.0,11.0,57,0.00,,---,0.00,VWS V14.01,2013-07-30 04:43:00,
2013-07-29 23:48:00,85.8,68.8,29.77,SSE,150,8.0,13.0,57,0.00,,---,0.00,VWS V14.01,2013-07-30 04:48:00,
2013-07-29 23:53:00,85.6,69.1,29.77,SSE,156,8.0,13.0,58,0.00,,---,0.00,VWS V14.01,2013-07-30 04:53:00,
2013-07-29 23:58:00,85.4,69.0,29.77,SE,142,6.0,13.0,58,0.00,,---,0.00,VWS V14.01,2013-07-30 04:58:00,